Regional Weather Roundup
Issued by NWS

Home | Current Version | Previous Version | Text Only | Print | Product List | Glossary On
Versions: 1 2 3 4 5 6 7 8 9 10 11 12 13 14 15 16 17 18 19 20 21 22 23 24 25 26 27 28 29 30 31 32 33 34 35 36 37 38 39 40 41 42 43 44 45 46 47 48 49 50
000
ASUS43 KOAX 261810
RWRNE

WEATHER ROUNDUP FOR NEBRASKA
NATIONAL WEATHER SERVICE OMAHA NE
100 PM CDT TUE MAY 26 2015

NOTES: SATELLITE DATA IS BEING USED TO AUGMENT CLOUD COVER ABOVE
       12000 FEET.
       "FAIR" INDICATES FEW OR NO CLOUDS BELOW 12,000 FEET WITH NO
       SIGNIFICANT WEATHER AND/OR OBSTRUCTIONS TO VISIBILITY.

  * THESE STATIONS DO NOT REPORT WEATHER SUCH AS RAIN...SNOW OR FOG.

NEZ001>004-019>022-054>056-261900-
NEBRASKA PANHANDLE

CITY           SKY/WX    TMP DP  RH WIND       PRES   REMARKS
SCOTTSBLUFF    CLOUDY    67  52  58 CALM      30.01F
6HR MIN TEMP:  46; 6HR MAX TEMP:  67;

ALLIANCE       CLOUDY    61  51  70 SE9       30.03S
6HR MIN TEMP:  52; 6HR MAX TEMP:  61;

CHADRON        MOSUNNY   63  49  60 SE9       30.01F
6HR MIN TEMP:  54; 6HR MAX TEMP:  64; 6HR PCP:  0.02;

KIMBALL          N/A    N/A N/A N/A MISG        N/A
SIDNEY         CLOUDY    61  50  67 CALM      30.04S
6HR MIN TEMP:  47; 6HR MAX TEMP:  63;

$$

NEZ057>060-069>072-079>082-261900-
SOUTHWEST NEBRASKA

CITY           SKY/WX    TMP DP  RH WIND       PRES   REMARKS
NORTH PLATTE   CLOUDY    67  49  52 N14       29.99F
6HR MIN TEMP:  53; 6HR MAX TEMP:  67;

IMPERIAL       CLOUDY    65  51  60 N9        30.02S
6HR MIN TEMP:  50; 6HR MAX TEMP:  65;

LEXINGTON      PTSUNNY   62  53  71 NW12      29.97S
MCCOOK         PTSUNNY   68  51  54 NW17      29.98F
6HR MIN TEMP:  53; 6HR MAX TEMP:  69;

OGALLALA       CLOUDY    64  50  61 N7        30.02F
$$

NEZ005>010-023>029-035>040-094-261900-
NORTH CENTRAL NEBRASKA

CITY           SKY/WX    TMP DP  RH WIND       PRES   REMARKS
VALENTINE      MOSUNNY   69  48  47 N10       29.97S
6HR MIN TEMP:  52; 6HR MAX TEMP:  69;

AINSWORTH      MOSUNNY   66  50  55 N12G18    29.97R
BROKEN BOW     PTSUNNY   67  48  50 NE20G25   29.95R
6HR MIN TEMP:  54; 6HR MAX TEMP:  67;

O`NEILL        PTSUNNY   67  51  57 N20G26    29.92R
ORD            MOSUNNY   67  50  54 N18G24    29.91R
6HR MIN TEMP:  55; 6HR MAX TEMP:  67;

THEDFORD       CLOUDY    64  48  57 N10       30.00R
$$

NEZ041-046>049-061>064-073>077-083>087-261900-
SOUTH CENTRAL NEBRASKA

CITY           SKY/WX    TMP DP  RH WIND       PRES   REMARKS
GRAND ISLAND   CLOUDY    63  52  67 NW16      29.92R
6HR MIN TEMP:  57; 6HR MAX TEMP:  63;

AURORA         CLOUDY    62  56  83 NW15      29.91R
HASTINGS       CLOUDY    64  53  67 NW20      29.92S
6HR MIN TEMP:  58; 6HR MAX TEMP:  64;

HEBRON         CLOUDY    67  56  67 NW13G18   29.90R
HOLDREGE       PTSUNNY   63  49  61 N14       29.97R
KEARNEY *      CLOUDY    63  48  59 NW16      29.95R
YORK           CLOUDY    63  57  82 NW15      29.89R
$$

NEZ011>018-030>034-042>045-261900-
NORTHEAST NEBRASKA

CITY           SKY/WX    TMP DP  RH WIND       PRES   REMARKS
NORFOLK        CLOUDY    60  54  80 NW13      29.87R
6HR MIN TEMP:  57; 6HR MAX TEMP:  62; 6HR PCP:  0.01;

ALBION         CLOUDY    60  52  73 N12       29.90R
BLAIR          CLOUDY    66  59  79 NW9       29.81S
COLUMBUS *     CLOUDY    61  52  72 NW12      29.88R
FREMONT        CLOUDY    63  59  87 NW14      29.84R
TEKAMAH        CLOUDY    66  61  84 NW16      29.80R
6HR MIN TEMP:  61; 6HR MAX TEMP:  69;

WAYNE          CLOUDY    59  56  89 NW12      29.86R
$$

NEZ050>053-065>068-078-088>093-261900-
SOUTHEAST NEBRASKA

CITY           SKY/WX    TMP DP  RH WIND       PRES   REMARKS
LINCOLN        PTSUNNY   67  62  84 NW15      29.84R
6HR MIN TEMP:  61; 6HR MAX TEMP:  72; 6HR PCP:  0.15;

OMAHA EPPLEY   CLOUDY    67  59  75 W6        29.81R
6HR MIN TEMP:  61; 6HR MAX TEMP:  68; 6HR PCP:  0.02;

BEATRICE       CLOUDY    68  58  70 NW17      29.85R
FALLS CITY     PTSUNNY   70  61  73 W9        29.81F
6HR MIN TEMP:  60; 6HR MAX TEMP:  73; 6HR PCP:  0.05;

NEBRASKA CITY  CLOUDY    68  60  75 W9        29.82S
PLATTSMOUTH    CLOUDY    67  57  71 NW7       29.82R
$$

NEZ044-045-051>053-067-261900-
OMAHA AREA

CITY           SKY/WX    TMP DP  RH WIND       PRES   REMARKS
OMAHA EPPLEY   CLOUDY    67  59  75 W6        29.81R
6HR MIN TEMP:  61; 6HR MAX TEMP:  68; 6HR PCP:  0.02;

BLAIR          CLOUDY    66  59  79 NW9       29.81S
FREMONT        CLOUDY    63  59  87 NW14      29.84R
MILLARD        CLOUDY    67  60  79 CALM      29.81S
OFFUTT AFB     PTSUNNY   67  60  76 W7        29.81R
PLATTSMOUTH    CLOUDY    67  57  71 NW7       29.82R
WAHOO          LGT RAIN  63  59  88 NW12G17   29.83R
$$


USA.gov is the U.S. government's official web portal to all federal, state and local government web resources and services.